TimeCST,TemperatureF,Dew PointF,Humidity,Sea Level PressureIn,VisibilityMPH,Wind Direction,Wind SpeedMPH,Gust SpeedMPH,PrecipitationIn,Events,Conditions,WindDirDegrees,DateUTC
12:55 AM,39.7,35.6,85,30.23,10.0,NNW,8.1,-,N/A,,Clear,330,2012-12-13 06:55:00
1:55 AM,39.4,35.6,86,30.23,10.0,NNW,9.2,-,N/A,,Clear,330,2012-12-13 07:55:00
2:57 AM,38.8,35.6,88,30.23,10.0,NNW,9.2,-,N/A,,Clear,340,2012-12-13 08:57:00
3:56 AM,38.1,35.4,90,30.25,10.0,North,8.1,-,N/A,,Clear,360,2012-12-13 09:56:00
4:55 AM,37.4,35.1,91,30.25,10.0,NNE,8.1,-,N/A,,Clear,20,2012-12-13 10:55:00
5:57 AM,37.6,35.8,93,30.25,8.0,NNE,5.8,-,N/A,,Partly Cloudy,20,2012-12-13 11:57:00
6:55 AM,37.4,36.1,95,30.27,6.0,NNE,5.8,-,N/A,,Partly Cloudy,20,2012-12-13 12:55:00
7:55 AM,42.3,39.4,90,30.30,6.0,North,5.8,-,N/A,,Partly Cloudy,350,2012-12-13 13:55:00
8:36 AM,44.6,41.0,87,30.29,6.0,North,10.4,-,N/A,,Scattered Clouds,10,2012-12-13 14:36:00
8:43 AM,46.4,41.0,81,30.29,6.0,North,12.7,-,N/A,,Mostly Cloudy,10,2012-12-13 14:43:00
8:55 AM,45.9,41.4,84,30.32,6.0,NNE,15.0,-,N/A,,Mostly Cloudy,20,2012-12-13 14:55:00
9:02 AM,46.4,41.0,81,30.29,6.0,NNE,13.8,-,N/A,,Mostly Cloudy,20,2012-12-13 15:02:00
9:55 AM,46.2,42.4,87,30.33,6.0,North,11.5,-,N/A,,Mostly Cloudy,10,2012-12-13 15:55:00
10:00 AM,46.2,42.4,87,30.33,6.0,North,11.5,-,N/A,,Mostly Cloudy,10,2012-12-13 16:00:00
10:24 AM,46.4,42.8,87,30.32,10.0,NNE,10.4,-,N/A,,Mostly Cloudy,20,2012-12-13 16:24:00
10:33 AM,48.2,42.8,82,30.32,6.0,NE,10.4,-,N/A,,Overcast,40,2012-12-13 16:33:00
10:55 AM,49.1,43.2,80,30.33,6.0,NNE,11.5,-,N/A,,Mostly Cloudy,30,2012-12-13 16:55:00
11:21 AM,51.8,42.8,71,30.30,10.0,NNE,9.2,-,N/A,,Mostly Cloudy,20,2012-12-13 17:21:00
11:55 AM,53.4,43.9,70,30.31,10.0,NNE,4.6,-,N/A,,Scattered Clouds,30,2012-12-13 17:55:00
12:55 PM,56.5,44.4,64,30.28,10.0,NE,10.4,-,N/A,,Partly Cloudy,50,2012-12-13 18:55:00
1:55 PM,58.8,43.5,57,30.26,10.0,NNE,15.0,-,N/A,,Clear,30,2012-12-13 19:55:00
2:55 PM,59.7,43.9,56,30.24,10.0,NE,12.7,-,N/A,,Clear,40,2012-12-13 20:55:00
3:55 PM,58.8,43.9,58,30.24,10.0,NE,12.7,-,N/A,,Clear,40,2012-12-13 21:55:00
4:55 PM,54.5,44.2,68,30.25,10.0,NE,5.8,-,N/A,,Clear,50,2012-12-13 22:55:00
5:55 PM,51.1,45.0,80,30.25,10.0,NE,4.6,-,N/A,,Clear,50,2012-12-13 23:55:00
6:55 PM,47.7,43.5,86,30.27,10.0,NE,3.5,-,N/A,,Clear,50,2012-12-14 00:55:00
7:55 PM,46.0,43.0,89,30.29,10.0,Calm,Calm,-,N/A,,Clear,0,2012-12-14 01:55:00
8:55 PM,41.7,39.6,92,30.30,10.0,Calm,Calm,-,N/A,,Clear,0,2012-12-14 02:55:00
9:55 PM,42.8,40.5,91,30.29,10.0,NE,4.6,-,N/A,,Clear,40,2012-12-14 03:55:00
10:55 PM,43.2,41.2,93,30.30,10.0,NE,6.9,-,N/A,,Partly Cloudy,50,2012-12-14 04:55:00
11:55 PM,45.0,42.3,90,30.30,10.0,NNE,5.8,-,N/A,,Partly Cloudy,30,2012-12-14 05:55:00